SL-14 R/B

Satellite information

Favourite Embed

Satellite Type and Status

ROCKET BODYIN ORBIT

Key statistics

Satellite SL-14 R/B at a glance.

Uptime

15321

Days in orbit

Revolutions

≈ 14.9

Per day

Orbit

LEO

Low Earth Orbit

Inclination

82.5

Latest

Satellite identification and parameters

Extended collection of information and parameters for SL-14 R/B.

Object identification

Identified? True

Debris? False

Object name: SL-14 R/B

International designator: 1983-099B

Object number (NORAD): 14373

Object ID (CCSDS): 14373

Country: COMMONWEALTH OF INDEPENDENT STATES (CIS)

Current information (Y/N): Y

RCS size: LARGE

Orbital parameters

Period: 96.906 minutes

Inclination: 82.5403 deg

SMA: 6988.681 km

Apoapsis: 624.534 km

Periapsis: 596.559 km

RAAN: 314.0549 deg

Eccentricy: 0.00200142

Argument of periapsis: 27.6728 deg

Mean anomaly: 332.5549 deg

Mean motion: 14.85969507 rev/day

Mean motion (dot): 0.00000584 rev/day2

B* drag term: 0.000063888486 1/REarth

Two-line elements (TLE)

Creation date: Sept. 8, 2025, 3:16 a.m.

Reference frame: TEME

Reference center: EARTH

Epoch: Sept. 7, 2025, 9:44 p.m. UTC

TLE line 0: 0 SL-14 R/B

TLE line 1: 1 14373U 83099B 25250.90584601 .00000584 00000-0 63888-4 0 9998

TLE line 2: 2 14373 82.5403 314.0549 0020014 27.6728 332.5549 14.85969507245474

Live tracking on map

Real-time ground track for satellite SL-14 R/B.

In-orbit conjunctions

A list of the most updated potential collisions computed for object SL-14 R/B.

Target Orbit TCA Probability of collision Miss distance Type
SL-16 DEB LEO 2024-11-08 17:36:53 0.0006212532 612.0 (m) DEBRIS

Associated space launch

Experimental ocean-monitoring satellite

SL-14 R/B was lifted into orbit during the mission ‘Tsiklon-3 | Okean-OE 1’, on board a Tsiklon-3 space rocket.

The launch took place on Sept. 28, 1983, 7:59 a.m. from 32/1.

For more information about the launch, click the button.

Launch to space Tsiklon-3 | Okean-OE 1
Tsiklon-3 | Okean-OE 1

Agency: N/A

Status: Launch Successful

Launch date: Sept. 28, 1983, 7:59 a.m. UTC

Rocket: Tsiklon-3

Launch pad: 32/1

Location: Plesetsk Cosmodrome, Russian Federation

...

Latest news about this satellite

There are no fresh news available about this satellite. Check back as we update our databases every day.


Newsletter sign-up

Weekly statistics, charts and insights to help you stay on top of the space industry.